When you browse on this site, cookies collect data to enhance your experience and personalize the content and advertising you see.
Visit our Privacy Policy to learn more. By continuing to use the site, you agree to this use of cookies and data.
  • In United Kingdom
  • List of Countries
  • For 7 days
  • Water Temperature
  • Weather Map
  • Weather Widgets
  • user-avatar
    Login

    Hourly Weather Balchik

    Today, 17 February, Monday

    Time Temperature Precipitation Wind Pressure Humidity
    00:00 +3°C° 0 mm 1 mps 750 mmHg 81%
    01:00 +2°C° 0 mm 1 mps 750 mmHg 81%
    02:00 +2°C° 0 mm 1 mps 750 mmHg 82%
    03:00 +2°C° 0 mm 1 mps 749 mmHg 81%
    04:00 +2°C° 0 mm 1 mps 749 mmHg 80%
    05:00 +2°C° 0 mm 1 mps 748 mmHg 79%
    06:00 +2°C° 0 mm 1 mps 749 mmHg 77%
    07:00 +2°C° 0 mm 1 mps 749 mmHg 76%
    08:00 +2°C° 0 mm 2 mps 749 mmHg 74%
    09:00 +4°C° 0 mm 2 mps 748 mmHg 68%
    10:00 +4°C° 0 mm 3 mps 748 mmHg 61%
    11:00 +7°C° 0 mm 3 mps 748 mmHg 54%
    12:00 +8°C° 0 mm 3 mps 747 mmHg 52%
    13:00 +8°C° 0 mm 3 mps 747 mmHg 51%
    14:00 +8°C° 0 mm 4 mps 747 mmHg 49%
    15:00 +8°C° 0 mm 3 mps 746 mmHg 54%
    16:00 +8°C° 0 mm 3 mps 746 mmHg 60%
    17:00 +7°C° 0 mm 3 mps 745 mmHg 65%
    18:00 +5°C° 0 mm 3 mps 745 mmHg 70%
    19:00 +4°C° 0 mm 4 mps 745 mmHg 75%
    20:00 +3°C° 0 mm 4 mps 745 mmHg 80%
    21:00 +3°C° 0 mm 4 mps 745 mmHg 81%
    22:00 +1°C° 0 mm 4 mps 745 mmHg 82%
    23:00 +1°C° 0 mm 4 mps 744 mmHg 83%

    Tomorrow, 18 February, Tuesday

    Time Temperature Precipitation Wind Pressure Humidity
    00:00 +1°C° 0 mm 4 mps 744 mmHg 83%
    01:00 +1°C° 0 mm 4 mps 744 mmHg 84%
    02:00 +1°C° 0 mm 4 mps 744 mmHg 85%
    03:00 +1°C° 0 mm 4 mps 743 mmHg 85%
    04:00 0°C° 0 mm 4 mps 743 mmHg 85%
    05:00 +1°C° 0 mm 3 mps 742 mmHg 86%
    06:00 +1°C° 0 mm 3 mps 742 mmHg 83%
    07:00 +2°C° 0 mm 3 mps 742 mmHg 81%
    08:00 +2°C° 0 mm 3 mps 742 mmHg 78%
    09:00 +4°C° 0 mm 3 mps 742 mmHg 70%
    10:00 +7°C° 0 mm 3 mps 742 mmHg 62%
    11:00 +9°C° 0 mm 3 mps 742 mmHg 54%
    12:00 +10°C° 0 mm 3 mps 742 mmHg 50%
    13:00 +12°C° 0 mm 2 mps 742 mmHg 46%
    14:00 +13°C° 0 mm 2 mps 742 mmHg 42%
    15:00 +13°C° 0 mm 2 mps 742 mmHg 47%
    16:00 +12°C° 0 mm 2 mps 741 mmHg 51%
    17:00 +10°C° 0 mm 2 mps 741 mmHg 56%
    18:00 +11°C° 0 mm 1 mps 741 mmHg 60%
    19:00 +10°C° 0 mm 1 mps 742 mmHg 64%
    20:00 +9°C° 0 mm 1 mps 742 mmHg 68%
    21:00 +8°C° 0 mm 1 mps 742 mmHg 70%
    22:00 +8°C° 0 mm 1 mps 742 mmHg 71%
    23:00 +8°C° 0 mm 1 mps 742 mmHg 72%

    Day after tomorrow, 19 February, Wednesday

    Time Temperature Precipitation Wind Pressure Humidity
    00:00 +6°C° 0 mm 2 mps 742 mmHg 74%
    01:00 +6°C° 0 mm 2 mps 742 mmHg 76%
    02:00 +5°C° 0 mm 3 mps 742 mmHg 78%
    03:00 +4°C° 0 mm 3 mps 742 mmHg 80%
    04:00 +4°C° 0 mm 3 mps 742 mmHg 81%
    05:00 +3°C° 0 mm 3 mps 742 mmHg 82%
    06:00 +4°C° 0 mm 3 mps 742 mmHg 84%
    07:00 +4°C° 0 mm 3 mps 742 mmHg 86%
    08:00 +4°C° 0 mm 3 mps 742 mmHg 88%
    09:00 +5°C° 0 mm 3 mps 742 mmHg 84%
    10:00 +7°C° 0 mm 3 mps 742 mmHg 79%
    11:00 +8°C° 0 mm 3 mps 743 mmHg 74%
    12:00 +9°C° 0 mm 3 mps 742 mmHg 72%
    13:00 +9°C° 0 mm 3 mps 742 mmHg 70%
    14:00 +10°C° 0 mm 3 mps 741 mmHg 68%
    15:00 +9°C° 0 mm 3 mps 741 mmHg 70%
    16:00 +9°C° 0 mm 3 mps 741 mmHg 72%
    17:00 +8°C° 0 mm 3 mps 740 mmHg 73%
    18:00 +7°C° 0 mm 2 mps 740 mmHg 78%
    19:00 +6°C° 0 mm 2 mps 740 mmHg 84%
    20:00 +5°C° 0 mm 2 mps 740 mmHg 89%
    21:00 +5°C° 0 mm 2 mps 739 mmHg 91%
    22:00 +4°C° 0 mm 2 mps 739 mmHg 92%
    23:00 +5°C° 0 mm 1 mps 739 mmHg 94%

    20 February, Thursday

    Time Temperature Precipitation Wind Pressure Humidity
    00:00 +5°C° 0 mm 1 mps 738 mmHg 94%
    01:00 +5°C° 0 mm 1 mps 738 mmHg 94%
    02:00 +5°C° 0 mm 1 mps 738 mmHg 95%
    03:00 +5°C° 0 mm 1 mps 737 mmHg 94%
    04:00 +5°C° 0 mm 1 mps 737 mmHg 94%
    05:00 +5°C° 0 mm 1 mps 736 mmHg 94%
    06:00 +4°C° 0 mm 2 mps 736 mmHg 94%
    07:00 +4°C° 0 mm 2 mps 736 mmHg 93%
    08:00 +4°C° 0 mm 2 mps 737 mmHg 93%
    09:00 +5°C° 0.2 mm 2 mps 737 mmHg 92%
    10:00 +5°C° 0.2 mm 2 mps 737 mmHg 92%
    11:00 +5°C° 0.2 mm 2 mps 737 mmHg 91%
    12:00 +5°C° 0.3 mm 2 mps 737 mmHg 91%
    13:00 +5°C° 0.3 mm 2 mps 737 mmHg 90%
    14:00 +6°C° 0.3 mm 2 mps 736 mmHg 89%
    15:00 +5°C° 0.3 mm 2 mps 737 mmHg 90%
    16:00 +4°C° 0.3 mm 3 mps 737 mmHg 91%
    17:00 +4°C° 0.3 mm 3 mps 737 mmHg 92%
    18:00 +4°C° 0.1 mm 3 mps 737 mmHg 92%
    19:00 +4°C° 0.1 mm 3 mps 738 mmHg 92%
    20:00 +4°C° 0.1 mm 3 mps 738 mmHg 92%
    21:00 +3°C° 0.1 mm 4 mps 739 mmHg 91%
    22:00 +3°C° 0.1 mm 4 mps 739 mmHg 91%
    23:00 +2°C° 0.1 mm 5 mps 740 mmHg 90%

    21 February, Friday

    Time Temperature Precipitation Wind Pressure Humidity
    00:00 +2°C° 0 mm 5 mps 740 mmHg 89%
    01:00 +2°C° 0 mm 5 mps 740 mmHg 89%
    02:00 +1°C° 0 mm 6 mps 740 mmHg 89%
    03:00 +1°C° 0 mm 6 mps 741 mmHg 89%
    04:00 +1°C° 0 mm 6 mps 741 mmHg 89%
    05:00 +1°C° 0 mm 6 mps 741 mmHg 89%
    06:00 +1°C° 0 mm 6 mps 742 mmHg 88%
    07:00 +1°C° 0 mm 6 mps 742 mmHg 87%
    08:00 +1°C° 0 mm 6 mps 742 mmHg 86%
    15:00 +5°C° 0 mm 5 mps 743 mmHg 64%
    16:00 +5°C° 0 mm 4 mps 743 mmHg 62%
    17:00 +5°C° 0 mm 4 mps 743 mmHg 60%
    18:00 +4°C° 0 mm 3 mps 743 mmHg 67%
    19:00 +3°C° 0 mm 3 mps 744 mmHg 75%
    20:00 +2°C° 0 mm 3 mps 744 mmHg 82%
    21:00 +2°C° 0 mm 3 mps 744 mmHg 84%
    22:00 +2°C° 0 mm 3 mps 744 mmHg 85%
    23:00 +2°C° 0 mm 3 mps 744 mmHg 87%

    22 February, Saturday

    Time Temperature Precipitation Wind Pressure Humidity
    00:00 +1°C° 0 mm 3 mps 744 mmHg 87%
    01:00 +1°C° 0 mm 3 mps 744 mmHg 87%
    02:00 +1°C° 0 mm 3 mps 744 mmHg 87%
    03:00 +1°C° 0 mm 3 mps 744 mmHg 85%
    04:00 +1°C° 0 mm 3 mps 744 mmHg 82%
    05:00 0°C° 0 mm 4 mps 744 mmHg 80%
    06:00 0°C° 0 mm 4 mps 744 mmHg 79%
    07:00 0°C° 0 mm 4 mps 744 mmHg 78%
    08:00 +1°C° 0 mm 4 mps 745 mmHg 77%
    09:00 +1°C° 0 mm 5 mps 745 mmHg 74%
    10:00 +2°C° 0 mm 6 mps 746 mmHg 71%
    11:00 +3°C° 0 mm 6 mps 747 mmHg 69%
    12:00 +4°C° 0 mm 6 mps 747 mmHg 66%
    13:00 +4°C° 0 mm 6 mps 747 mmHg 63%
    14:00 +6°C° 0 mm 5 mps 747 mmHg 61%
    15:00 +6°C° 0.1 mm 5 mps 747 mmHg 60%
    16:00 +5°C° 0.1 mm 5 mps 747 mmHg 59%
    17:00 +5°C° 0.1 mm 4 mps 747 mmHg 58%
    18:00 +4°C° 0 mm 3 mps 747 mmHg 62%
    19:00 +3°C° 0 mm 3 mps 747 mmHg 66%
    20:00 +3°C° 0 mm 2 mps 747 mmHg 69%
    21:00 +3°C° 0 mm 2 mps 747 mmHg 71%
    22:00 +3°C° 0 mm 2 mps 747 mmHg 73%
    23:00 +3°C° 0 mm 2 mps 747 mmHg 75%
    Show more